Location: Northcutt
(34.7304°N, 84.4305°W)
Time: 14:13:00
(UTC+00:00)

SR - Visible Passes

Search period start: 03 October 2022 00:00
Search period end: 13 October 2022 00:00
Orbit: 573 x 879 km, 66.7° (Epoch: 02 October)

Date Brightness Start Highest point End Pass type
(mag) Time Alt. Az. Time Alt. Az. Time Alt. Az.
03 Oct ? 10:19:55 10° N 10:23:21 17° NE 10:26:37 10° E visible
04 Oct ? 00:44:50 10° SSE 00:45:36 13° SSE 00:45:36 13° SSE visible
04 Oct ? 23:58:17 10° ESE 23:59:18 11° ESE 23:59:18 11° ESE visible
05 Oct ? 01:34:58 10° SSW 01:38:51 44° SSW 01:38:51 44° SSW visible
05 Oct ? 10:20:41 10° N 10:25:18 30° NE 10:29:33 10° ESE visible
06 Oct ? 00:45:13 10° S 00:50:43 45° ESE 00:52:39 34° ENE visible
06 Oct ? 02:28:03 10° WSW 02:32:13 26° WNW 02:32:13 26° WNW visible
06 Oct ? 09:31:31 10° N 09:34:38 16° NE 09:37:36 10° E visible
06 Oct ? 11:12:07 10° NNW 11:17:14 64° WSW 11:21:53 10° SSE visible
06 Oct ? 23:56:27 10° SSE 00:00:47 22° ESE 00:05:11 10° ENE visible
07 Oct ? 01:36:47 10° SW 01:42:28 51° WNW 01:45:54 24° N visible
07 Oct ? 10:21:54 10° NNW 10:27:03 57° ENE 10:31:42 10° SE visible
08 Oct ? 00:46:21 10° SSW 00:52:11 83° ESE 00:58:07 10° NNE visible
08 Oct ? 02:31:24 10° W 02:34:57 16° NW 02:38:29 10° N visible
08 Oct ? 09:32:09 10° N 09:36:35 27° NE 09:40:41 10° ESE visible
08 Oct ? 23:56:41 10° S 00:02:06 41° ESE 00:07:36 10° NE visible
09 Oct ? 01:39:12 10° WSW 01:44:15 29° NW 01:49:21 10° N visible
09 Oct ? 08:43:09 10° NNE 08:45:53 14° NE 08:48:30 10° ENE visible
09 Oct ? 10:23:27 10° NNW 10:28:35 71° WSW 10:33:14 10° SSE visible
10 Oct ? 00:48:04 10° SW 00:53:48 56° WNW 00:59:35 10° NNE visible
10 Oct ? 09:34:02 14° NNW 09:38:21 51° ENE 09:42:56 10° SE visible
10 Oct ? 23:57:42 10° SSW 00:03:33 76° ESE 00:09:27 10° NNE visible
11 Oct ? 01:42:23 10° W 01:46:13 17° NW 01:50:01 10° N visible
11 Oct ? 08:47:45 25° NE 08:47:51 25° NE 08:51:47 10° ESE visible
11 Oct ? 10:27:18 20° WNW 10:29:55 34° WSW 10:34:06 10° S visible
12 Oct ? 00:50:21 10° WSW 00:55:33 32° NW 01:00:46 10° N visible
12 Oct ? 09:40:53 56° S 09:40:53 56° S 09:44:33 10° SSE visible
